Notices

What's New in latest Release from April 7th, 2021:

- Updated Glossary, including Speed of Maximum Gust, and Total Hourly Precipitation

- Updated national and regional climate services offices contacts and prices information

- Addition of station inventory lists for 1981-2010, 1971-2000, and 1961-1990 Normals.

If you haven't already, please take our survey and provide feedback about our website: https://eccc.sondage-survey.ca/f/LanguageSelection.aspx?s=442ca660-fcf1-47c0-95a9-59707d6fd709

Hourly Data Report for April 20, 2017

KUGAARUK CLIMATE
NUNAVUT

68°32'15.060" N
89°47'47.020" W
15.80 m
2303094
71407
NBB

Download Data

Hourly Data (April 2017)
Hourly Data Report for April 20, 2017
TIME
LST
Temp Definition
°C
Dew Point Definition
°C
Rel Hum Definition
%
Precip. Amount Definition
mm

Wind Dir Definition
10's deg

Wind Spd Definition
km/h
Visibility Definition
km
Stn Press Definition
kPa
Hmdx Definition


Wind Chill Definition


Weather Definition


00:00 -23.2 -25.8 79 0.0 25 16   101.82   -33 LegendNANA
01:00 -22.9 -25.5 79 0.0 25 13   101.84   -32 LegendNANA
02:00 -23.4 -26.1 79 0.0 25 12   101.88   -32 LegendNANA
03:00 -23.2 -25.9 79 0.0 25 11   101.89   -31 LegendNANA
04:00 -23.0 -25.8 78 0.0 25 8   101.91   -30 LegendNANA
05:00 -22.8 -25.9 75 0.0 25 7   101.95   -29 LegendNANA
06:00 -22.2 -25.8 73 0.0 25 5   101.96   -27 LegendNANA
07:00 -21.5 -25.5 70 0.0 25 9   101.99   -29 LegendNANA
08:00 -21.1 -25.5 68 0.0 25 9   102.02   -28 LegendNANA
09:00 -20.4 -25.6 63 0.0 24 5   102.02   -25 LegendNANA
10:00 -16.8 -24.2 53 0.0 9 2   102.03   -18 LegendNANA
11:00 -16.5 -21.8 63 0.0 4 13   102.03   -24 LegendNANA
12:00 -16.9 -21.8 66 0.0 2 18   102.05   -26 LegendNANA
13:00 -16.9 -21.9 65 0.0 3 15   102.09   -25 LegendNANA
14:00 -16.8 -21.5 67 0.0 3 14   102.13   -25 LegendNANA
15:00 -17.1 -21.3 69 0.0 3 16   102.17   -26 LegendNANA
16:00 -17.4 -21.6 70 0.0 3 14   102.20   -26 LegendNANA
17:00 -18.8 -23.0 69 0.0 8 10   102.23   -26 LegendNANA
18:00 -20.6 -24.4 71 0.0 7 9   102.26   -27 LegendNANA
19:00 -20.9 -23.3 81 0.0 8 9   102.29   -28 LegendNANA
20:00 -22.3 -24.6 82 0.2 6 9   102.30   -29 LegendNANA
21:00 -23.8 -26.1 81 0.0 8 8   102.30   -31 LegendNANA
22:00 -24.9 -27.6 78 0.0 0 1   102.35   -26 LegendNANA
23:00 -24.6 -27.2 79 0.0 8 5   102.36   -29 LegendNANA

Notes on Data Quality.

Legend

  • E = Estimated
  • M = Missing
  • NA = Not Available*
  • [empty] = Indicates an unobserved value
Date modified: